[[{"header":{"parameterUnit":"m.s-1","parameterCategory":1,"la1":30.2991,"la2":30.254,"lo1":-89.0895,"lo2":-89.0444,"dy":0.0017,"dx":0.0017,"nx":28,"ny":28,"refTime":"2025-06-08T03:00:00:Z","depth":0,"parameterNumber":2,"parameterNumberName":"U-component_of_WINDS"},"data":[0,0,0,0,0,0,0,0,0,0,0,0,0,0,0,0,0,0,0,0,0,0,0,0,0,0,0,0,0,0,0,0,0,0,0,0,0,0,0,0,0,0,0,0,0,0,0,0,0,0,0,0,0,0,0,0,0,0,3.2458,3.2459,0,3.2525,3.2526,3.2527,3.2526,3.2525,3.2524,3.2523,3.2597,3.26,3.2603,0,0,0,0,0,0,0,0,0,0,0,0,0,3.2337,3.2339,3.2458,3.2459,3.246,3.2525,3.2526,3.2527,3.2526,3.2525,3.2523,3.2522,3.2597,3.26,3.2603,0,0,0,0,0,0,0,0,0,0,0,0,0,3.2396,3.234,3.2458,3.2467,3.2468,3.2525,3.2526,3.2527,3.2526,3.2525,3.2523,3.2522,3.2595,3.26,3.2604,3.2658,0,0,3.2617,3.2619,0,0,0,0,0,0,0,0,3.2392,3.24,3.2465,3.2466,3.2468,3.2515,3.2511,3.2571,3.2526,3.2504,3.2523,3.2521,3.2572,3.2578,3.2594,3.2661,3.2664,3.2617,3.262,3.2622,3.2623,0,0,0,0,0,0,0,3.2388,3.2397,3.2485,3.2466,3.2468,3.247,3.2477,3.2522,3.2545,3.2506,3.2506,3.2514,3.2572,3.2589,3.2595,3.2665,3.2617,3.2621,3.2623,3.2625,3.2786,3.2788,0,0,0,0,0,0,3.2381,3.2394,3.2483,3.2487,3.2426,3.2474,3.2481,3.2502,3.2544,3.255,3.2515,3.2513,3.2583,3.259,3.2598,3.2667,3.2622,3.2626,3.2628,3.2784,3.2786,3.2788,0,0,0,0,0,0,3.2379,3.2389,3.248,3.244,3.2452,3.2477,3.25,3.2504,3.2521,3.2551,3.2556,3.2528,3.2582,3.2592,3.2644,3.2669,3.2627,3.2631,3.2782,3.2785,3.2787,3.2803,0,0,0,0,0,0,3.2375,3.2388,3.2407,3.2441,3.2454,3.2522,3.2502,3.2506,3.2527,3.2526,3.2564,3.2569,3.2582,3.2637,3.2648,3.2675,3.2635,3.278,3.2784,3.2787,3.2801,3.2806,3.2811,0,0,0,0,0,3.2371,3.2409,3.2408,3.2418,3.2477,3.2523,3.2531,3.2543,3.2529,3.255,3.257,3.2568,3.2665,3.2642,3.2654,3.2683,3.2779,3.2783,3.2786,3.2798,3.2805,3.2811,0,0,0,0,0,0,3.2378,3.2413,3.2412,3.2462,3.2489,3.2523,3.2548,3.2549,3.2582,3.258,3.2595,3.2604,3.2656,3.2675,3.2649,3.274,3.272,3.2727,3.2726,3.2732,3.2737,3.2732,3.2638,0,0,0,0,0,3.2385,3.2417,3.2447,3.2488,3.2502,3.2523,3.2543,3.255,3.258,3.2592,3.2616,3.2647,3.2685,3.271,3.2746,3.2803,3.2814,3.2829,3.2835,3.2839,3.2844,3.2881,3.2889,3.2801,3.2801,3.2801,0,0,3.2401,3.2424,3.2443,3.249,3.2512,3.2548,3.2533,3.257,3.2598,3.2599,3.2649,3.2668,3.2704,3.276,3.2786,3.2777,3.2871,3.2843,3.2846,3.285,3.2886,3.2894,3.2901,3.2804,3.2803,3.2803,0,0,3.2447,3.2467,3.2504,3.2527,3.2561,3.2575,3.2585,3.2619,3.2631,3.2682,3.2684,3.2719,3.2783,3.281,3.2831,3.2893,3.2894,3.2905,3.2932,3.2967,3.2974,3.298,3.3005,3.3014,3.291,3.291,3.291,0,3.2463,3.2514,3.2524,3.2563,3.2585,3.2587,3.2628,3.265,3.2695,3.2712,3.2701,3.2783,3.2808,3.2872,3.2887,3.2904,3.2918,3.29,3.2971,3.2978,3.2984,3.3008,3.3017,3.2911,3.2911,3.2911,3.2911,0,3.2533,3.2569,3.2596,3.2639,3.2664,3.2703,3.2723,3.2748,3.2754,3.2771,3.2825,3.2855,3.2899,3.2914,3.292,3.2981,3.2975,3.2968,3.2949,3.2994,3.3017,3.3026,3.2913,3.2913,3.2912,3.2912,0,0,3.2584,3.2634,3.2644,3.2665,3.2704,3.2733,3.2775,3.2817,3.284,3.2872,3.2909,3.2965,3.296,3.2985,3.2995,3.3025,3.3077,3.3015,3.3016,3.3028,3.315,3.3156,3.3167,3.3077,3.3079,3.3081,3.3148,0,3.2637,3.2708,3.2721,3.2784,3.282,3.2824,3.2861,3.2891,3.2909,3.2945,3.2965,3.3005,3.2993,3.3009,3.304,3.3064,3.3102,3.3059,3.3116,3.3118,3.3108,3.3178,3.3184,3.3246,3.3157,3.3158,3.3159,0,3.2707,3.274,3.2807,3.2845,3.2861,3.2893,3.2935,3.2967,3.3003,3.3015,3.3044,3.3051,3.3099,3.3078,3.3146,3.3116,3.3141,3.3157,3.316,3.3167,3.3142,3.3189,3.3266,3.3276,3.3173,3.3172,3.3171,0,3.2741,3.2803,3.2852,3.2869,3.2914,3.2937,3.2957,3.2992,3.3017,3.3055,3.3073,3.3116,3.314,3.3175,3.3195,3.3177,3.3263,3.3242,3.3277,3.3277,3.3295,3.3294,3.3379,3.3308,3.3308,3.3308,3.3308,0,3.2799,3.2841,3.2868,3.2898,3.2947,3.2962,3.3011,3.3031,3.3062,3.31,3.3106,3.3142,3.3165,3.3205,3.3222,3.3278,3.3289,3.3302,3.3306,3.3302,3.3301,3.3319,3.3316,3.331,3.331,3.3309,3.3309,0,3.2845,3.2865,3.2919,3.2957,3.2968,3.3002,3.3037,3.3069,3.3087,3.3135,3.3147,3.3177,3.3225,3.3249,3.3308,3.332,3.3384,3.3385,3.3371,3.3374,3.3408,3.3405,3.3509,3.3525,3.3441,3.3442,3.3443,0,3.2882,3.2914,3.2956,3.2981,3.3001,3.304,3.3067,3.3085,3.3114,3.3159,3.3187,3.3234,3.3273,3.3351,3.338,3.3427,3.343,3.3464,3.3438,3.3434,3.3435,3.3433,3.3438,3.3469,3.3469,3.347,3.3471,0,3.2945,3.2954,3.2991,3.3033,3.3064,3.3098,3.3131,3.3152,3.3177,3.3209,3.3257,3.3287,3.3349,3.3398,3.3448,3.3472,3.3478,3.3479,3.349,3.3487,3.3479,3.3487,3.3386,3.3476,3.3476,3.3475,3.3475,3.3475,3.299,3.302,3.3055,3.3097,3.3124,3.3157,3.3189,3.3213,3.3252,3.3303,3.3312,3.3365,3.3405,3.3472,3.3498,3.3542,3.3535,3.355,3.3555,3.3559,3.3562,3.3471,3.3551,3.3551,3.3551,3.3551,3.3551,0,3.3056,3.3079,3.3118,3.3165,3.3199,3.3199,3.3237,3.3267,3.3312,3.3348,3.3387,3.3445,3.3494,3.3528,3.3578,3.3608,3.3612,3.362,3.3619,3.3626,3.3563,3.355,3.3617,3.3617,3.3617,3.3617,3.3617,3.3617,3.3094,3.3147,3.316,3.3228,3.3252,3.3302,3.3325,3.3356,3.3385,3.3449,3.3489,3.351,3.3547,3.3601,3.3647,3.3657,3.3676,3.3686,3.3695,3.3637,3.363,3.3623,3.3611,3.3689,3.3689,3.3754,3.3755,3.3755]},{"header":{"parameterUnit":"m.s-1","parameterCategory":1,"la1":30.2991,"la2":30.254,"lo1":-89.0895,"lo2":-89.0444,"dy":0.0017,"dx":0.0017,"nx":28,"ny":28,"refTime":"2025-06-08T03:00:00:Z","depth":0,"parameterNumber":3,"parameterNumberName":"V-component_of_WINDS"},"data":[0,0,0,0,0,0,0,0,0,0,0,0,0,0,0,0,0,0,0,0,0,0,0,0,0,0,0,0,0,0,0,0,0,0,0,0,0,0,0,0,0,0,0,0,0,0,0,0,0,0,0,0,0,0,0,0,0,0,5.7745,5.7747,0,5.7958,5.796,5.7962,5.8002,5.8,5.7999,5.7997,5.821,5.8217,5.8224,0,0,0,0,0,0,0,0,0,0,0,0,0,5.7368,5.7375,5.7744,5.7747,5.775,5.7957,5.796,5.7963,5.8002,5.8,5.7998,5.7996,5.8207,5.8216,5.8225,0,0,0,0,0,0,0,0,0,0,0,0,0,5.7551,5.7377,5.7744,5.7795,5.7801,5.7957,5.796,5.7964,5.8003,5.8,5.7998,5.7995,5.8204,5.8215,5.8226,5.8344,0,0,5.8259,5.8264,0,0,0,0,0,0,0,0,5.7541,5.7565,5.7785,5.7792,5.7799,5.7951,5.7905,5.8091,5.8004,5.7926,5.7997,5.7994,5.8125,5.8142,5.8188,5.8354,5.8363,5.826,5.8266,5.8271,5.8274,0,0,0,0,0,0,0,5.7528,5.7556,5.7829,5.7788,5.7797,5.7805,5.7829,5.7941,5.8037,5.7933,5.7936,5.7961,5.8129,5.8177,5.8193,5.8366,5.826,5.8269,5.8276,5.828,5.8641,5.8643,0,0,0,0,0,0,5.7507,5.7545,5.7822,5.7835,5.7661,5.7814,5.784,5.7905,5.8036,5.8054,5.7963,5.7962,5.816,5.818,5.8201,5.8349,5.8271,5.8281,5.8287,5.8638,5.8641,5.8645,0,0,0,0,0,0,5.7499,5.7531,5.7813,5.7691,5.7728,5.7824,5.7895,5.791,5.7959,5.8059,5.8076,5.7995,5.8159,5.8185,5.8309,5.8357,5.8286,5.8296,5.8634,5.8639,5.8643,5.8645,0,0,0,0,0,0,5.7488,5.7528,5.7575,5.7692,5.7734,5.7919,5.7899,5.7916,5.7978,5.7979,5.8094,5.811,5.8159,5.8292,5.8319,5.837,5.8304,5.863,5.8636,5.8641,5.8641,5.8649,5.8656,0,0,0,0,0,5.7474,5.7565,5.7577,5.761,5.7795,5.7922,5.7946,5.8001,5.7982,5.8029,5.8094,5.8107,5.8347,5.8304,5.8335,5.839,5.8627,5.8634,5.8641,5.8638,5.8647,5.8656,0,0,0,0,0,0,5.7449,5.7582,5.7596,5.7728,5.7814,5.7928,5.799,5.8009,5.8101,5.8097,5.8161,5.8186,5.8306,5.836,5.8311,5.8512,5.8486,5.8499,5.8472,5.8483,5.849,5.8474,5.8313,0,0,0,0,0,5.7459,5.7553,5.7663,5.7769,5.7811,5.7893,5.795,5.7986,5.8076,5.8112,5.8185,5.8271,5.8366,5.8427,5.852,5.8649,5.8675,5.8702,5.8709,5.8715,5.8726,5.8799,5.8813,5.8667,5.8667,5.8667,0,0,5.748,5.7564,5.7619,5.7766,5.7836,5.7931,5.7923,5.8023,5.8093,5.8126,5.8248,5.8305,5.8405,5.8532,5.8591,5.8581,5.8772,5.8724,5.8727,5.8736,5.8808,5.8821,5.8833,5.8672,5.8671,5.867,0,0,5.7568,5.7641,5.7738,5.7809,5.7917,5.7971,5.7994,5.8107,5.8147,5.827,5.8298,5.8381,5.8543,5.8614,5.8671,5.8786,5.8802,5.8814,5.8853,5.8924,5.8936,5.8946,5.8988,5.9003,5.8825,5.8825,5.8825,0,5.758,5.7725,5.7784,5.7885,5.7948,5.7985,5.8083,5.8149,5.828,5.8323,5.831,5.8515,5.8585,5.8729,5.8758,5.8802,5.8831,5.8802,5.8929,5.8941,5.8951,5.8992,5.9008,5.8826,5.8826,5.8826,5.8826,0,5.7736,5.7836,5.7901,5.803,5.8101,5.8199,5.8272,5.8337,5.8366,5.8421,5.8547,5.8632,5.8743,5.878,5.8809,5.8929,5.892,5.8917,5.8892,5.8965,5.9005,5.9021,5.8827,5.8827,5.8827,5.8826,0,0,5.7812,5.7975,5.7998,5.8057,5.818,5.8257,5.8357,5.8468,5.8523,5.8612,5.8697,5.8834,5.8833,5.8898,5.8935,5.8997,5.9084,5.8987,5.899,5.9003,5.9223,5.9225,5.9242,5.9095,5.9098,5.9101,5.9215,0,5.7915,5.8097,5.8154,5.8305,5.8399,5.8436,5.8523,5.8606,5.8661,5.8747,5.8806,5.8903,5.8893,5.8933,5.8996,5.906,5.913,5.9053,5.9175,5.9178,5.915,5.9263,5.9265,5.9369,5.9231,5.9234,5.9236,0,5.8059,5.8154,5.8316,5.8428,5.8469,5.8547,5.8654,5.8736,5.8831,5.8866,5.894,5.8972,5.9077,5.9045,5.919,5.9137,5.919,5.9229,5.9234,5.9249,5.9212,5.9281,5.9403,5.9419,5.926,5.9258,5.9257,0,5.8101,5.8268,5.8387,5.8437,5.857,5.8624,5.8682,5.8775,5.8839,5.8931,5.8973,5.9076,5.9133,5.9211,5.927,5.9241,5.941,5.9383,5.9442,5.9441,5.9476,5.9473,5.961,5.9509,5.9508,5.9508,5.9508,0,5.821,5.8307,5.8408,5.8481,5.8592,5.8655,5.8762,5.8821,5.8904,5.8989,5.9026,5.9104,5.9177,5.9264,5.931,5.9424,5.9449,5.948,5.9491,5.9477,5.9474,5.9513,5.9508,5.9512,5.9511,5.9511,5.951,0,5.8275,5.8346,5.8478,5.8595,5.8626,5.8702,5.8801,5.8873,5.8929,5.9036,5.9064,5.9152,5.9257,5.9324,5.9456,5.9487,5.9612,5.9621,5.9581,5.9587,5.9642,5.9636,5.981,5.9836,5.9716,5.9717,5.9718,0,5.834,5.8417,5.8542,5.8603,5.8661,5.8758,5.8824,5.8889,5.8956,5.9072,5.913,5.9238,5.9328,5.9494,5.9568,5.967,5.9682,5.9736,5.9697,5.9681,5.9684,5.9679,5.9688,5.9742,5.9743,5.9744,5.9744,0,5.8449,5.8481,5.8576,5.8684,5.8763,5.885,5.8937,5.8984,5.9064,5.9137,5.9247,5.9317,5.9454,5.9561,5.967,5.9727,5.975,5.9756,5.9775,5.9762,5.9737,5.9752,5.9599,5.9752,5.9751,5.975,5.975,5.975,5.8517,5.8588,5.8688,5.8792,5.8866,5.8947,5.9021,5.9087,5.918,5.9299,5.9331,5.9445,5.9539,5.9689,5.9749,5.9838,5.9831,5.9858,5.9866,5.9872,5.9873,5.9722,5.9858,5.9858,5.9858,5.9858,5.9858,0,5.8629,5.8696,5.8792,5.8914,5.8997,5.9012,5.911,5.9177,5.9278,5.9365,5.9454,5.958,5.9684,5.9767,5.9874,5.993,5.9943,5.9956,5.9953,5.9966,5.9873,5.9846,5.9944,5.9944,5.9944,5.9944,5.9944,5.9944,5.8697,5.8818,5.8862,5.9019,5.9084,5.9199,5.9253,5.9328,5.9398,5.9538,5.9626,5.968,5.9766,5.988,5.9976,5.9997,6.0035,6.0047,6.007,5.9982,5.9972,5.9963,5.9939,6.0054,6.0054,6.0156,6.0157,6.0158]}]]